CW0238 Weather Reports


Display with metric or nautical units.
time (UTC)temp
F
wind
direction
speed
MPH
gust
MPH
rain 1hr
in
rain 24hr
in
rain mn
in
humidity
%
barometer
mb
20260502182334 55 284 3.0 7.0 0.00 0.00 0.00 60 1018.8
20260502182105 55 345 2.0 7.0 0.00 0.00 0.00 62 1018.8
20260502181334 55 268 2.0 7.0 0.00 0.00 0.00 63 1018.8
20260502180832 55 289 1.0 4.0 0.00 0.00 0.00 64 1018.7
20260502180332 53 327 1.0 4.0 0.00 0.00 0.00 64 1018.8
20260502170309 52 304 1.0 3.0 0.00 0.00 0.00 64 1019.3
20260502164304 52 304 0.0 0.0 0.00 0.00 0.00 67 1019.3
20260502163803 52 304 0.0 0.0 0.00 0.00 0.00 65 1019.3
20260502163303 52 304 0.0 2.0 0.00 0.00 0.00 66 1019.3
20260502162802 52 304 1.0 4.0 0.00 0.00 0.00 67 1019.3
20260502162524 52 302 1.0 4.0 0.00 0.00 0.00 64 1019.4
20260502161757 52 306 1.0 2.0 0.00 0.00 0.00 65 1019.5
20260502161255 52 306 0.0 2.0 0.00 0.00 0.00 66 1019.4
20260502160752 51 306 0.0 3.0 0.00 0.00 0.00 67 1019.5
20260502160253 51 306 0.0 3.0 0.00 0.00 0.00 66 1019.5
20260502151738 50 306 0.0 2.0 0.00 0.00 0.00 71 1019.3
20260502150730 49 306 0.0 2.0 0.00 0.00 0.00 70 1019.3
20260502150227 49 306 0.0 2.0 0.00 0.00 0.00 68 1019.5
20260502130656 45 314 0.0 0.0 0.00 0.00 0.00 87 1019.2
20260502130156 45 314 0.0 0.0 0.00 0.00 0.00 88 1019.1
20260502123645 43 314 0.0 0.0 0.00 0.00 0.00 91 1019.1
20260502123412 43 314 0.0 0.0 0.00 0.00 0.00 92 1019.0
20260502122639 43 314 0.0 0.0 0.00 0.00 0.00 92 1018.9
20260502122404 43 314 0.0 1.0 0.00 0.00 0.00 92 1019.0
20260502121638 42 314 0.0 1.0 0.00 0.00 0.00 92 1018.9
20260502121138 42 314 0.0 1.0 0.00 0.00 0.00 92 1018.8
20260502120637 42 314 0.0 1.0 0.00 0.00 0.00 93 1018.8
20260502120136 41 314 0.0 0.0 0.00 0.00 0.00 93 1018.7
20260502115636 41 314 0.0 0.0 0.00 0.00 0.00 93 1018.7
20260502115131 40 314 0.0 0.0 0.00 0.00 0.00 93 1018.5
20260502114631 40 314 0.0 0.0 0.00 0.00 0.00 93 1018.5
20260502114131 40 314 0.0 0.0 0.00 0.00 0.00 93 1018.5
20260502113849 40 314 0.0 0.0 0.00 0.00 0.00 93 1018.2
20260502113124 40 314 0.0 0.0 0.00 0.00 0.00 93 1018.2
20260502112625 40 314 0.0 0.0 0.00 0.00 0.00 93 1018.3
20260502112123 39 314 0.0 0.0 0.00 0.00 0.00 93 1018.4
20260502111627 39 314 0.0 0.0 0.00 0.00 0.00 93 1018.4
20260502111120 39 314 0.0 0.0 0.00 0.00 0.00 93 1018.4
20260502110617 39 314 0.0 0.0 0.00 0.00 0.00 93 1018.5
20260502110121 39 314 0.0 0.0 0.00 0.00 0.00 93 1018.3
20260502105113 38 314 0.0 1.0 0.00 0.00 0.00 93 1018.1
20260502104610 38 314 0.0 1.0 0.00 0.00 0.00 93 1018.2
20260502104327 38 314 0.0 0.0 0.00 0.00 0.00 93 1018.2
20260502103604 38 314 0.0 0.0 0.00 0.00 0.00 92 1018.1
20260502103104 38 314 0.0 0.0 0.00 0.00 0.00 93 1018.1
20260502102602 38 314 0.0 0.0 0.00 0.00 0.00 93 1018.1
20260502102057 38 314 0.0 0.0 0.00 0.00 0.00 93 1018.0
20260502101557 38 314 0.0 0.0 0.00 0.00 0.00 93 1018.0
20260502101053 38 314 0.0 0.0 0.00 0.00 0.00 93 1018.0
20260502100555 38 314 0.0 0.0 0.00 0.00 0.00 92 1018.0
20260502100333 38 314 0.0 0.0 0.00 0.00 0.00 92 1018.1
20260502091040 39 314 0.0 0.0 0.00 0.00 0.00 92 1018.0
20260502090538 39 314 0.0 0.0 0.00 0.00 0.00 92 1018.0
20260502071504 40 314 0.0 0.0 0.00 0.00 0.00 91 1017.8
20260502070959 40 314 0.0 0.0 0.00 0.00 0.00 91 1018.0
20260502070521 40 314 0.0 0.0 0.00 0.00 0.00 91 1017.8
20260502070000 40 314 0.0 0.0 0.00 0.00 0.00 91 1017.8
20260502065459 40 314 0.0 0.0 0.00 0.00 0.00 90 1017.8
20260502065001 40 314 0.0 0.0 0.00 0.00 0.00 90 1017.9
20260502064718 40 314 0.0 0.0 0.00 0.00 0.00 90 1017.9
20260502063956 40 314 0.0 0.0 0.00 0.00 0.00 90 1017.9
20260502063718 40 314 0.0 0.0 0.00 0.00 0.00 90 1018.0
20260502062953 40 314 0.0 0.0 0.00 0.00 0.00 91 1018.1
20260502062450 40 314 0.0 0.0 0.00 0.00 0.00 91 1018.1
20260502061947 40 314 0.0 0.0 0.00 0.00 0.00 90 1018.2
20260502061709 40 314 0.0 0.0 0.00 0.00 0.00 90 1018.1
20260502060947 40 314 0.0 0.0 0.00 0.00 0.00 90 1018.1
20260502060443 40 314 0.0 0.0 0.00 0.00 0.00 90 1018.1
20260502060219 40 314 0.0 0.0 0.00 0.00 0.00 90 1018.1
20260502055440 41 314 0.0 0.0 0.00 0.00 0.00 89 1018.0
20260502054940 41 314 0.0 0.0 0.00 0.00 0.00 89 1018.1
20260502054437 41 314 0.0 0.0 0.00 0.00 0.00 89 1018.1
20260502053437 41 314 0.0 0.0 0.00 0.00 0.00 89 1018.3
20260502052935 41 314 0.0 0.0 0.00 0.00 0.00 88 1018.4
20260502052436 42 314 0.0 0.0 0.00 0.00 0.00 88 1018.5
20260502051931 42 314 0.0 0.0 0.00 0.00 0.00 88 1018.4
20260502051653 42 314 0.0 0.0 0.00 0.00 0.00 88 1018.5
20260502050928 42 314 0.0 0.0 0.00 0.00 0.00 88 1018.4
20260502050423 42 314 0.0 0.0 0.00 0.00 0.00 88 1018.5
20260502045922 42 314 0.0 0.0 0.00 0.00 0.00 88 1018.5
20260502045421 42 314 0.0 0.0 0.00 0.00 0.00 88 1018.4
20260502044927 42 314 0.0 0.0 0.00 0.00 0.00 87 1018.4
20260502044422 42 314 0.0 0.0 0.00 0.00 0.00 87 1018.4
20260502043917 42 314 0.0 0.0 0.00 0.00 0.00 87 1018.3
20260502043416 43 314 0.0 0.0 0.00 0.00 0.00 87 1018.5
20260502042914 43 314 0.0 0.0 0.00 0.00 0.00 87 1018.4
20260502042641 43 314 0.0 0.0 0.00 0.00 0.00 87 1018.5
20260502041912 43 314 0.0 0.0 0.00 0.00 0.00 87 1018.5
20260502041414 43 314 0.0 0.0 0.00 0.00 0.00 86 1018.5
20260502040912 43 314 0.0 0.0 0.00 0.00 0.00 86 1018.5
20260502040410 43 314 0.0 0.0 0.00 0.00 0.00 86 1018.5
20260502040128 43 314 0.0 0.0 0.00 0.00 0.00 85 1018.5
20260502035405 43 314 0.0 0.0 0.00 0.00 0.00 85 1018.5
20260502034906 43 314 0.0 0.0 0.00 0.00 0.00 84 1018.5
20260502034405 44 314 0.0 0.0 0.00 0.00 0.00 84 1018.5
20260502033905 44 314 0.0 0.0 0.00 0.00 0.00 83 1018.5
20260502033405 44 314 0.0 1.0 0.00 0.00 0.00 82 1018.4
20260502032906 45 314 0.0 1.0 0.00 0.00 0.00 81 1018.2
20260502032406 45 314 0.0 0.0 0.00 0.00 0.00 81 1018.2
20260502031906 45 314 0.0 0.0 0.00 0.00 0.00 81 1018.3
20260502031406 45 314 0.0 0.0 0.00 0.00 0.00 81 1018.4
20260502030906 46 314 0.0 0.0 0.00 0.00 0.00 80 1018.6
20260502030405 46 314 0.0 0.0 0.00 0.00 0.00 80 1018.6
20260502025906 46 314 0.0 0.0 0.00 0.00 0.00 79 1018.5
20260502025402 46 314 0.0 0.0 0.00 0.00 0.00 79 1018.5
20260502025137 46 314 0.0 0.0 0.00 0.00 0.00 78 1018.4
20260502024629 47 314 0.0 0.0 0.00 0.00 0.00 77 1018.4
20260502024130 47 314 0.0 0.0 0.00 0.00 0.00 76 1018.4
20260502023620 47 314 0.0 2.0 0.00 0.00 0.00 74 1018.5
20260502022903 48 314 0.0 2.0 0.00 0.00 0.00 74 1018.5
20260502022402 48 315 0.0 0.0 0.00 0.00 0.00 73 1018.4
20260502021903 49 315 0.0 0.0 0.00 0.00 0.00 72 1018.3
20260502021402 49 315 0.0 0.0 0.00 0.00 0.00 72 1018.3
20260502020903 49 315 0.0 0.0 0.00 0.00 0.00 71 1018.2
20260502020402 50 315 0.0 0.0 0.00 0.00 0.00 69 1018.1
20260502020126 50 315 0.0 0.0 0.00 0.00 0.00 68 1018.0
20260502015359 50 315 0.0 0.0 0.00 0.00 0.00 66 1017.9
20260502014900 51 315 0.0 0.0 0.00 0.00 0.00 65 1017.7
20260502014359 51 315 0.0 0.0 0.00 0.00 0.00 65 1017.7
20260502013900 51 315 0.0 1.0 0.00 0.00 0.00 62 1017.6
20260502013359 52 315 0.0 1.0 0.00 0.00 0.00 61 1017.4
20260502012900 52 315 0.0 0.0 0.00 0.00 0.00 61 1017.3
20260502012359 53 315 0.0 0.0 0.00 0.00 0.00 58 1017.1
20260502011900 53 315 0.0 0.0 0.00 0.00 0.00 59 1017.0
20260502011400 53 315 0.0 0.0 0.00 0.00 0.00 57 1016.9
20260502010859 53 315 0.0 0.0 0.00 0.00 0.00 56 1016.7
20260502010359 54 315 0.0 0.0 0.00 0.00 0.00 56 1016.7
20260502005900 54 315 0.0 1.0 0.00 0.00 0.00 55 1016.6
20260502005359 55 315 1.0 5.0 0.00 0.00 0.00 53 1016.5
20260502005126 55 315 1.0 5.0 0.00 0.00 0.00 53 1016.3
20260502004355 55 342 0.0 4.0 0.00 0.00 0.00 52 1016.3
20260502003855 56 355 1.0 3.0 0.00 0.00 0.00 50 1016.4
20260502003356 56 355 1.0 4.0 0.00 0.00 0.00 47 1016.3
20260502002856 56 350 1.0 4.0 0.00 0.00 0.00 46 1016.3
20260502002355 56 13 1.0 5.0 0.00 0.00 0.00 49 1016.2
20260502002122 57 14 1.0 5.0 0.00 0.00 0.00 48 1016.1
20260502001355 57 30 1.0 3.0 0.00 0.00 0.00 48 1016.2
20260502000856 57 30 1.0 3.0 0.00 0.00 0.00 49 1016.1
20260502000354 57 32 1.0 4.0 0.00 0.00 0.00 47 1016.0
20260501235853 57 325 1.0 4.0 0.00 0.00 0.00 50 1015.7
20260501235354 57 355 1.0 3.0 0.00 0.00 0.00 49 1015.6
20260501235133 57 343 1.0 6.0 0.00 0.00 0.00 48 1015.5
20260501234625 57 342 2.0 12.0 0.00 0.00 0.00 48 1015.2
20260501233853 57 11 2.0 12.0 0.00 0.00 0.00 48 1015.3
20260501233353 57 317 2.0 8.0 0.00 0.00 0.00 47 1015.2
20260501232854 57 320 1.0 8.0 0.00 0.00 0.00 48 1015.0
20260501231854 58 350 2.0 8.0 0.00 0.00 0.00 45 1015.1
20260501231357 58 329 2.0 8.0 0.00 0.00 0.00 47 1015.2
20260501230854 58 342 2.0 6.0 0.00 0.00 0.00 46 1015.3
20260501230353 58 318 1.0 5.0 0.00 0.00 0.00 44 1015.2
20260501225852 58 315 1.0 4.0 0.00 0.00 0.00 46 1015.3
20260501225351 58 330 2.0 7.0 0.00 0.00 0.00 45 1015.4
20260501224852 59 277 2.0 7.0 0.00 0.00 0.00 46 1015.3
20260501224352 59 334 2.0 8.0 0.00 0.00 0.00 44 1015.3
20260501223852 59 12 2.0 9.0 0.00 0.00 0.00 43 1015.1
20260501223350 59 327 3.0 10.0 0.00 0.00 0.00 42 1015.2
20260501222850 59 342 2.0 10.0 0.00 0.00 0.00 43 1015.2
20260501222346 59 344 2.0 8.0 0.00 0.00 0.00 44 1015.1
20260501221850 60 0 3.0 10.0 0.00 0.00 0.00 44 1015.3
20260501221606 61 338 3.0 10.0 0.00 0.00 0.00 43 1015.2
20260501220842 60 355 3.0 9.0 0.00 0.00 0.00 42 1015.2
20260501220339 61 311 3.0 10.0 0.00 0.00 0.00 41 1015.3
20260501215840 62 308 2.0 10.0 0.00 0.00 0.00 42 1015.2
20260501215341 62 310 2.0 7.0 0.00 0.00 0.00 41 1015.2